Voltar ao catálogo

STARLINK-33891

AtivoComunicaçõesVLEO
NORAD 63827·PAYLOAD·🇺🇸 United States

Lançado May 4, 2025 de Cape Canaveral Space Force Station

Loading…

Próximas Passagens (próximas 24 horas)

TLE

AtualizadoSource: CelesTrak SupGP

Época: Sep 14, 2026, 22:49 UTC

1 63827C 25092Z   26257.95118056 -.00044090  00000+0 -15967-2 0  2576
2 63827  43.0000 184.0814 0001206 265.1317 151.6421 15.27604206    19

Acompanhe STARLINK-33891 em tempo real com AllMySat

Download on the App Store